Location: Newark
(45.8667°N, 9.7333°E)
Time: 15:39:06
(UTC+00:00)

Transit 4A - Pass Details

Date: 27 January 2020
Orbit: 872 x 973 km, 66.8° (Epoch: 23 February)

Event Time Altitude Azimuth Distance (km) Brightness Sun altitude
Rises 11:49:30 0° 330° (NNW) 3,478 10.4 25.5°
Reaches altitude 10° 11:52:59 10° 350° (N) 2,532 9.7 25.5°
Maximum altitude 11:56:41 17° 30° (NNE) 2,078 9.4 25.4°
Drops below altitude 10° 12:00:22 10° 69° (ENE) 2,529 10.0 25.3°
Sets 12:03:49 0° 90° (E) 3,473 10.8 25.3°
